{"data":{"norad_id":52275,"epoch":"2026-09-19T15:33:49.913568Z","epoch_age_seconds":133077,"freshness":"FRESH","line1":"1 52275U 22041Q   26262.64849437 -.00000232  00000+0  42833-5 0  9995","line2":"2 52275  53.1625 311.6028 0001257  89.0417 271.0730 15.34384930243739","mean_motion":15.3438493,"eccentricity":0.0001257,"inclination_deg":53.1625,"raan_deg":311.6028,"arg_perigee_deg":89.0417,"mean_anomaly_deg":271.073,"bstar":4.2833e-6,"rev_number":24373,"period_min":93.84867980944,"perigee_km":461.88813254107,"apogee_km":463.60793103806,"semimajor_km":6840.8850317896,"source":"CELESTRAK","updated_at":"2026-09-20T09:00:40.013721Z"}}